Flag for U.S.A. Weather past 2 weeks in Akron, Ohio, U.S.A.

Now
77 °F

Sunny.


Feels Like: 78 °F
Forecast: 56 / 76 °F
Wind: 23 mph from West

Location: Akron Fulton International Airport

Current Time: Sep 21, 2014 at 4:11:36 PM

Latest Report: Sep 21, 2014 at 2:54 PM


Visibility: 10 mi

Pressure: 29.67 "Hg

Humidity: 35%

Dew point: 47 °F

Location of AkronLocation

Historic Weather in Akron — Graph

°F

Akron temperature yesterday

Maximum temperature yesterday: 78 °F (at 3:54 PM)
Minimum temperature yesterday: 61 °F (at 12:54 AM)
Average temperature yesterday: 69 °F

Past Weeks' High & Low Weather Summary

 TemperatureHumidityPressure
High81 °F (Sep 10, 2:54 PM)97% (Sep 7, 3:54 AM)30.35 "Hg (Sep 7, 3:54 AM)
Low42 °F (Sep 14, 4:50 AM)39% (Sep 21, 1:54 PM)29.67 "Hg (Sep 21, 1:54 PM)
Average62 °F75%30.09 "Hg
* Reported Sep 6 1:54 PM — Sep 21 1:54 PM, Akron, Weather by CustomWeather, © 2014

Note: Actual official high and low records may vary slightly from our data, if they occured in-between our weather recording intervals... More about our weather records

Advertising

Akron weather history for previous 24 hours

 ConditionsComfort  
Time TempWeatherWind HumidityBarometerVisibility
1:54 PM
Sep 21
78 °FSunny.16 mph39%29.67 "Hg10 mi
12:54 PM78 °FScattered clouds.21 mph45%29.68 "Hg10 mi
11:54 AM78 °FBroken clouds.18 mph54%29.68 "Hg10 mi
10:54 AM74 °FBroken clouds.21 mph67%29.70 "Hg10 mi
9:54 AM73 °FBroken clouds.10 mph79%29.70 "Hg10 mi
8:54 AM71 °FScattered clouds.13 mph81%29.70 "Hg8 mi
7:54 AM69 °FOvercast.13 mph84%29.71 "Hg9 mi
6:54 AM70 °FMostly cloudy.13 mph81%29.70 "Hg10 mi
5:54 AM70 °FClear.13 mph79%29.71 "Hg10 mi
4:54 AM70 °FPartly cloudy.13 mph79%29.74 "Hg10 mi
3:54 AM69 °FPassing clouds.9 mph81%29.76 "Hg10 mi
2:54 AM69 °FPassing clouds.12 mph81%29.79 "Hg10 mi
1:54 AM68 °FClear.12 mph82%29.83 "Hg10 mi
12:54 AM69 °FPassing clouds.9 mph81%29.85 "Hg10 mi
11:54 PM
Sep 20
70 °FMostly cloudy.12 mph79%29.87 "Hg10 mi
10:54 PM70 °FClear.9 mph76%29.90 "Hg10 mi
9:54 PM72 °FPassing clouds.9 mph71%29.92 "Hg10 mi
8:54 PM72 °FPassing clouds.10 mph71%29.91 "Hg10 mi
7:54 PM72 °FSunny.9 mph71%29.90 "Hg10 mi
6:54 PM75 °FSunny.10 mph64%29.89 "Hg10 mi
5:54 PM78 °FScattered clouds.15 mph58%29.90 "Hg10 mi
4:54 PM77 °FScattered clouds.15 mph62%29.92 "Hg10 mi
Weather by CustomWeather, © 2014

See weather overviewHow to use our weather pages